MAKIL Weather Reports


Display with metric or nautical units.
time (UTC)temp
F
wind
direction
speed
MPH
gust
MPH
rain 1hr
in
rain 24hr
in
rain mn
in
humidity
%
barometer
mb
20260507054724 44 72 15.0 18.0 0.00 0.00 0.00 57
20260507052724 44 66 14.0 17.0 0.00 0.00 0.00 55
20260507050724 44 65 14.0 17.0 0.00 0.00 0.00 51
20260507044724 43 60 13.0 17.0 0.00 0.00 0.00 51
20260507042724 42 57 13.0 15.0 0.00 0.00 0.00 57
20260507040724 41 54 13.0 15.0 0.00 0.00 0.00 58
20260507032725 41 53 13.0 15.0 0.00 0.00 0.00 59
20260507030724 40 51 14.0 16.0 0.00 0.00 0.00 57
20260507024724 40 48 14.0 16.0 0.00 0.00 0.00 53
20260507022724 40 50 15.0 16.0 0.00 0.00 0.00 56
20260507020724 40 51 14.0 16.0 0.00 0.00 0.00 62
20260507012723 40 54 15.0 16.0 0.00 0.00 0.00 58
20260507010724 40 54 14.0 16.0 0.00 0.00 0.00 58
20260507004723 41 44 14.0 16.0 0.00 0.00 0.00 52
20260507001051 42 44 15.0 17.0 0.00 0.00 0.00 49
20260506234724 42 41 12.0 14.0 0.00 0.00 0.00 53
20260506232723 42 36 12.0 14.0 0.00 0.00 0.00 54
20260506230725 42 38 11.0 13.0 0.00 0.00 0.00 53
20260506224723 42 27 12.0 14.0 0.00 0.00 0.00 55
20260506222723 42 24 11.0 13.0 0.00 0.00 0.00 60
20260506220723 40 16 9.0 12.0 0.00 0.00 0.00 91
20260506214723 40 346 7.0 7.0 0.00 0.00 0.00 91
20260506212723 40 313 7.0 8.0 0.00 0.00 0.00 89
20260506210723 41 285 8.0 8.0 0.00 0.00 0.00 86
20260506204723 41 259 9.0 10.0 0.00 0.00 0.00 85
20260506202723 41 256 10.0 11.0 0.00 0.00 0.00 84
20260506200723 41 250 11.0 12.0 0.00 0.00 0.00 84
20260506194722 42 237 11.0 13.0 0.00 0.00 0.00 77
20260506192722 42 234 11.0 13.0 0.00 0.00 0.00 74
20260506190722 43 235 11.0 13.0 0.00 0.00 0.00 73
20260506184722 43 237 11.0 13.0 0.00 0.00 0.00 72
20260506182723 43 232 10.0 13.0 0.00 0.00 0.00 71
20260506180723 44 245 12.0 15.0 0.00 0.00 0.00 70
20260506174722 44 241 13.0 15.0 0.00 0.00 0.00 70
20260506172721 44 234 13.0 17.0 0.00 0.00 0.00 73
20260506170722 44 227 13.0 16.0 0.00 0.00 0.00 73
20260506164721 45 240 15.0 17.0 0.00 0.00 0.00 71
20260506162722 44 234 12.0 16.0 0.00 0.00 0.00 70
20260506160722 45 233 12.0 15.0 0.00 0.00 0.00 69
20260506154722 45 234 11.0 15.0 0.00 0.00 0.00 68
20260506152722 45 245 15.0 19.0 0.00 0.00 0.00 66
20260506150721 46 243 15.0 19.0 0.00 0.00 0.00 65
20260506144721 45 244 16.0 22.0 0.00 0.00 0.00 70
20260506142721 45 243 18.0 21.0 0.00 0.00 0.00 67
20260506140721 45 237 18.0 21.0 0.00 0.00 0.00 66
20260506134721 46 241 19.0 21.0 0.00 0.00 0.00 70
20260506132721 45 242 17.0 21.0 0.00 0.00 0.00 64
20260506130720 47 249 20.0 23.0 0.00 0.00 0.00 62
20260506124720 47 244 17.0 22.0 0.00 0.00 0.00 62
20260506122721 47 234 17.0 22.0 0.00 0.00 0.00 63
20260506120720 47 227 18.0 21.0 0.00 0.00 0.00 67
20260506114721 45 226 18.0 22.0 0.00 0.00 0.00 72
20260506112721 46 229 19.0 22.0 0.00 0.00 0.00 73
20260506110721 46 230 18.0 24.0 0.00 0.00 0.00 74
20260506104721 45 225 19.0 23.0 0.00 0.00 0.00 73
20260506102722 46 224 15.0 22.0 0.00 0.00 0.00 71
20260506100722 44 221 16.0 21.0 0.00 0.00 0.00 76
20260506094722 46 224 15.0 19.0 0.00 0.00 0.00 72
20260506092721 45 231 12.0 17.0 0.00 0.00 0.00 76
20260506090721 45 234 14.0 17.0 0.00 0.00 0.00 74
20260506084722 45 237 15.0 17.0 0.00 0.00 0.00 73
20260506082722 46 235 15.0 18.0 0.00 0.00 0.00 72
20260506080721 44 232 11.0 16.0 0.00 0.00 0.00 79
20260506072722 45 230 9.0 13.0 0.00 0.00 0.00 78
20260506070721 44 236 10.0 12.0 0.00 0.00 0.00 75
20260506060721 44 268 9.0 11.0 0.00 0.00 0.00 68